{"data":{"norad_id":57512,"epoch":"2026-09-20T15:42:36.170784Z","epoch_age_seconds":114216,"freshness":"FRESH","line1":"1 57512U 23113T   26263.65458531  .00000593  00000+0  31063-4 0  9999","line2":"2 57512  43.0046 329.2199 0001655 270.6630  89.4033 15.27578117173793","mean_motion":15.27578117,"eccentricity":0.0001655,"inclination_deg":43.0046,"raan_deg":329.2199,"arg_perigee_deg":270.663,"mean_anomaly_deg":89.4033,"bstar":3.1063e-5,"rev_number":17379,"period_min":94.266864913462,"perigee_km":481.9192071928,"apogee_km":484.1902616569,"semimajor_km":6861.1917344249,"source":"CELESTRAK","updated_at":"2026-09-21T09:00:33.635537Z"}}